Retour au catalogue

NOAA 17 DEB

ActifPO
NORAD 48758·DEBRIS·🇺🇸 United States

Lancé Jun 24, 2002 depuis Vandenberg Space Force Base

Loading…

Prochains Passages (prochaines 24 heures)

TLE

FraisSource: Space-Track

Époque: Sep 13, 2026, 22:49 UTC

1 48758U 02032CT  26256.95121425  .00005792  00000-0  12505-2 0  9997
2 48758  98.7455 252.7787 0005605 336.3326  23.7613 14.58742035286177

Suivez NOAA 17 DEB en temps réel avec AllMySat

Download on the App Store